sat.trackr.live / text

‹ back to catalog

SHIJIAN-6 05B (SJ-6 05B)

NORAD 49962 · 2021-122B

PAYLOAD ACTIVE UNKNOWN

§ Identity

Operator
Country
PRC
Launch date
2021-12-10
Launch site
JSC
Launch vehicle
Mass (kg)
RCS (m²)

External: N2YO · Heavens-Above · Gunter

§ Orbital elements

Epoch: 2026-09-20T17:34:47.866944Z

Period
95.21 min
Inclination
97.3906°
Eccentricity
0.0003157
Mean motion
15.12373300 rev/d
Perigee alt
526.8 km
Apogee alt
531.1 km
Semi-major
6,907.1 km
B*
1.0710e-4
RAAN
241.2230°
Arg perigee
80.9542°
Mean anomaly
279.2046°
Rev number
26,418

§ Raw data

SHIJIAN-6 05B (SJ-6 05B)1 49962U 21122B   26263.73249846  .00001795  00000+0  10710-3 0  99932 49962  97.3906 241.2230 0003157  80.9542 279.2046 15.12373300264180

JSON: /api/v1/satellites/49962 · /tle

For live sub-satellite position, see the globe view (requires WebGL).

§ Visibility from observer

Set your observer location to see the next 7 days of passes ≥ 10°. The values pass through the URL so the page stays shareable.

No JS? Fill the form by hand. The geolocation button needs JavaScript.